Year,Month,Day,Hour,Minute,Value (Times are PST for temperature in C)
2019,07,31,00,00,18.50
2019,07,31,00,01,18.40
2019,07,31,00,02,18.40
2019,07,31,00,03,18.40
2019,07,31,00,04,18.40
2019,07,31,00,05,18.40
2019,07,31,00,06,18.40
2019,07,31,00,07,18.40
2019,07,31,00,08,18.40
2019,07,31,00,09,18.40
2019,07,31,00,10,18.40
2019,07,31,00,11,18.40
2019,07,31,00,12,18.40
2019,07,31,00,13,18.40
2019,07,31,00,14,18.40
2019,07,31,00,15,18.40
2019,07,31,00,16,18.40
2019,07,31,00,17,18.40
2019,07,31,00,18,18.40
2019,07,31,00,19,18.40
2019,07,31,00,20,18.40
2019,07,31,00,21,18.40
2019,07,31,00,22,18.40
2019,07,31,00,23,18.40
2019,07,31,00,24,18.40
2019,07,31,00,25,18.40
2019,07,31,00,26,18.30
2019,07,31,00,27,18.40
2019,07,31,00,28,18.40
2019,07,31,00,29,18.40
2019,07,31,00,30,18.40
2019,07,31,00,31,18.40
2019,07,31,00,32,18.40
2019,07,31,00,33,18.40
2019,07,31,00,34,18.50
2019,07,31,00,35,18.50
2019,07,31,00,36,18.50
2019,07,31,00,37,18.50
2019,07,31,00,38,18.50
2019,07,31,00,39,18.50
2019,07,31,00,40,18.50
2019,07,31,00,41,18.50
2019,07,31,00,42,18.50
2019,07,31,00,43,18.50
2019,07,31,00,44,18.50
2019,07,31,00,45,18.50
2019,07,31,00,46,18.50
2019,07,31,00,47,18.50
2019,07,31,00,48,18.50
2019,07,31,00,49,18.50
2019,07,31,00,50,18.40
2019,07,31,00,51,18.40
2019,07,31,00,52,18.40
2019,07,31,00,53,18.40
2019,07,31,00,54,18.40
2019,07,31,00,55,18.40
2019,07,31,00,56,18.40
2019,07,31,00,57,18.40
2019,07,31,00,58,18.40
2019,07,31,00,59,18.40
2019,07,31,01,00,18.40
2019,07,31,01,01,18.40
2019,07,31,01,02,18.40
2019,07,31,01,03,18.30
2019,07,31,01,04,18.30
2019,07,31,01,05,18.30
2019,07,31,01,06,18.30
2019,07,31,01,07,18.30
2019,07,31,01,08,18.30
2019,07,31,01,09,18.30
2019,07,31,01,10,18.30
2019,07,31,01,11,18.30
2019,07,31,01,12,18.30
2019,07,31,01,13,18.30
2019,07,31,01,14,18.30
2019,07,31,01,15,18.30
2019,07,31,01,16,18.30
2019,07,31,01,17,18.30
2019,07,31,01,18,18.30
2019,07,31,01,19,18.30
2019,07,31,01,20,18.30
2019,07,31,01,21,18.30
2019,07,31,01,22,18.30
2019,07,31,01,23,18.30
2019,07,31,01,24,18.30
2019,07,31,01,25,18.30
2019,07,31,01,26,18.30
2019,07,31,01,27,18.30
2019,07,31,01,28,18.30
2019,07,31,01,29,18.30
2019,07,31,01,30,18.30
2019,07,31,01,31,18.30
2019,07,31,01,32,18.30
2019,07,31,01,33,18.30
2019,07,31,01,34,18.30
2019,07,31,01,35,18.30
2019,07,31,01,36,18.30
2019,07,31,01,37,18.30
2019,07,31,01,38,18.30
2019,07,31,01,39,18.30
2019,07,31,01,40,18.30
2019,07,31,01,41,18.30
2019,07,31,01,42,18.30
2019,07,31,01,43,18.30
2019,07,31,01,44,18.20
2019,07,31,01,45,18.20
2019,07,31,01,46,18.20
2019,07,31,01,47,18.20
2019,07,31,01,48,18.20
2019,07,31,01,49,18.20
2019,07,31,01,50,18.20
2019,07,31,01,51,18.20
2019,07,31,01,52,18.20
2019,07,31,01,53,18.20
2019,07,31,01,54,18.20
2019,07,31,01,55,18.20
2019,07,31,01,56,18.20
2019,07,31,01,57,18.20
2019,07,31,01,58,18.20
2019,07,31,01,59,18.20
2019,07,31,02,00,18.20
2019,07,31,02,01,18.20
2019,07,31,02,02,18.20
2019,07,31,02,03,18.20
2019,07,31,02,04,18.20
2019,07,31,02,05,18.20
2019,07,31,02,06,18.20
2019,07,31,02,07,18.20
2019,07,31,02,08,18.20
2019,07,31,02,09,18.20
2019,07,31,02,10,18.20
2019,07,31,02,11,18.20
2019,07,31,02,12,18.20
2019,07,31,02,13,18.20
2019,07,31,02,14,18.20
2019,07,31,02,15,18.20
2019,07,31,02,16,18.20
2019,07,31,02,17,18.20
2019,07,31,02,18,18.20
2019,07,31,02,19,18.20
2019,07,31,02,20,18.20
2019,07,31,02,21,18.20
2019,07,31,02,22,18.20
2019,07,31,02,23,18.10
2019,07,31,02,24,18.10
2019,07,31,02,25,18.10
2019,07,31,02,26,18.10
2019,07,31,02,27,18.10
2019,07,31,02,28,18.10
2019,07,31,02,29,18.10
2019,07,31,02,30,18.10
2019,07,31,02,31,18.00
2019,07,31,02,32,17.90
2019,07,31,02,33,17.90
2019,07,31,02,34,17.90
2019,07,31,02,35,17.90
2019,07,31,02,36,17.90
2019,07,31,02,37,17.90
2019,07,31,02,38,17.90
2019,07,31,02,39,17.90
2019,07,31,02,40,17.90
2019,07,31,02,41,17.90
2019,07,31,02,42,17.90
2019,07,31,02,43,17.90
2019,07,31,02,44,17.90
2019,07,31,02,45,17.90
2019,07,31,02,46,17.90
2019,07,31,02,47,17.90
2019,07,31,02,48,17.90
2019,07,31,02,49,17.90
2019,07,31,02,50,17.90
2019,07,31,02,51,17.90
2019,07,31,02,52,17.90
2019,07,31,02,53,17.90
2019,07,31,02,54,17.90
2019,07,31,02,55,17.90
2019,07,31,02,56,17.90
2019,07,31,02,57,17.90
2019,07,31,02,58,17.90
2019,07,31,02,59,17.90
2019,07,31,03,00,17.90
2019,07,31,03,01,17.90
2019,07,31,03,02,17.90
2019,07,31,03,03,17.90
2019,07,31,03,04,17.90
2019,07,31,03,05,17.90
2019,07,31,03,06,17.90
2019,07,31,03,07,17.90
2019,07,31,03,08,17.90
2019,07,31,03,09,17.90
2019,07,31,03,10,17.90
2019,07,31,03,11,17.90
2019,07,31,03,12,17.90
2019,07,31,03,13,17.90
2019,07,31,03,14,17.90
2019,07,31,03,15,17.90
2019,07,31,03,16,17.90
2019,07,31,03,17,17.90
2019,07,31,03,18,17.90
2019,07,31,03,19,17.90
2019,07,31,03,20,17.90
2019,07,31,03,21,17.90
2019,07,31,03,22,17.90
2019,07,31,03,23,17.90
2019,07,31,03,24,17.90
2019,07,31,03,25,17.90
2019,07,31,03,26,17.90
2019,07,31,03,27,17.90
2019,07,31,03,28,17.90
2019,07,31,03,29,17.90
2019,07,31,03,30,17.90
2019,07,31,03,31,17.90
2019,07,31,03,32,17.90
2019,07,31,03,33,17.90
2019,07,31,03,34,17.90
2019,07,31,03,35,17.90
2019,07,31,03,36,17.90
2019,07,31,03,37,17.90
2019,07,31,03,38,17.90
2019,07,31,03,39,17.90
2019,07,31,03,40,17.90
2019,07,31,03,41,17.90
2019,07,31,03,42,17.90
2019,07,31,03,43,17.90
2019,07,31,03,44,17.90
2019,07,31,03,45,17.90
2019,07,31,03,46,17.90
2019,07,31,03,47,17.80
2019,07,31,03,48,17.80
2019,07,31,03,49,17.80
2019,07,31,03,50,17.80
2019,07,31,03,51,17.80
2019,07,31,03,52,17.80
2019,07,31,03,53,17.80
2019,07,31,03,54,17.80
2019,07,31,03,55,17.80
2019,07,31,03,56,17.80
2019,07,31,03,57,17.80
2019,07,31,03,58,17.80
2019,07,31,03,59,17.80
2019,07,31,04,00,17.80
2019,07,31,04,01,17.80
2019,07,31,04,02,17.80
2019,07,31,04,03,17.80
2019,07,31,04,04,17.80
2019,07,31,04,05,17.80
2019,07,31,04,06,17.70
2019,07,31,04,07,17.70
2019,07,31,04,08,17.70
2019,07,31,04,09,17.70
2019,07,31,04,10,17.70
2019,07,31,04,11,17.70
2019,07,31,04,12,17.70
2019,07,31,04,13,17.70
2019,07,31,04,14,17.70
2019,07,31,04,15,17.60
2019,07,31,04,16,17.60
2019,07,31,04,17,17.60
2019,07,31,04,18,17.60
2019,07,31,04,19,17.60
2019,07,31,04,20,17.50
2019,07,31,04,21,17.50
2019,07,31,04,22,17.50
2019,07,31,04,23,17.50
2019,07,31,04,24,17.50
2019,07,31,04,25,17.50
2019,07,31,04,26,17.50
2019,07,31,04,27,17.50
2019,07,31,04,28,17.50
2019,07,31,04,29,17.50
2019,07,31,04,30,17.50
2019,07,31,04,31,17.50
2019,07,31,04,32,17.50
2019,07,31,04,33,17.50
2019,07,31,04,34,17.50
2019,07,31,04,35,17.50
2019,07,31,04,36,17.50
2019,07,31,04,37,17.50
2019,07,31,04,38,17.50
2019,07,31,04,39,17.50
2019,07,31,04,40,17.50
2019,07,31,04,41,17.50
2019,07,31,04,42,17.50
2019,07,31,04,43,17.40
2019,07,31,04,44,17.40
2019,07,31,04,45,17.40
2019,07,31,04,46,17.40
2019,07,31,04,47,17.40
2019,07,31,04,48,17.40
2019,07,31,04,49,17.40
2019,07,31,04,50,17.40
2019,07,31,04,51,17.40
2019,07,31,04,52,17.40
2019,07,31,04,53,17.30
2019,07,31,04,54,17.30
2019,07,31,04,55,17.30
2019,07,31,04,56,17.30
2019,07,31,04,57,17.30
2019,07,31,04,58,17.30
2019,07,31,04,59,17.40
2019,07,31,05,00,17.40
2019,07,31,05,01,17.40
2019,07,31,05,02,17.40
2019,07,31,05,03,17.30
2019,07,31,05,04,17.30
2019,07,31,05,05,17.30
2019,07,31,05,06,17.30
2019,07,31,05,07,17.30
2019,07,31,05,08,17.30
2019,07,31,05,09,17.30
2019,07,31,05,10,17.30
2019,07,31,05,11,17.30
2019,07,31,05,12,17.30
2019,07,31,05,13,17.30
2019,07,31,05,14,17.30
2019,07,31,05,15,17.30
2019,07,31,05,16,17.30
2019,07,31,05,17,17.30
2019,07,31,05,18,17.30
2019,07,31,05,19,17.30
2019,07,31,05,20,17.30
2019,07,31,05,21,17.30
2019,07,31,05,22,17.30
2019,07,31,05,23,17.30
2019,07,31,05,24,17.30
2019,07,31,05,25,17.30
2019,07,31,05,26,17.30
2019,07,31,05,27,17.30
2019,07,31,05,28,17.30
2019,07,31,05,29,17.30
2019,07,31,05,30,17.30
2019,07,31,05,31,17.30
2019,07,31,05,32,17.30
2019,07,31,05,33,17.30
2019,07,31,05,34,17.30
2019,07,31,05,35,17.30
2019,07,31,05,36,17.20
2019,07,31,05,37,17.20
2019,07,31,05,38,17.20
2019,07,31,05,39,17.20
2019,07,31,05,40,17.20
2019,07,31,05,41,17.20
2019,07,31,05,42,17.20
2019,07,31,05,43,17.20
2019,07,31,05,44,17.20
2019,07,31,05,45,17.20
2019,07,31,05,46,17.20
2019,07,31,05,47,17.20
2019,07,31,05,48,17.20
2019,07,31,05,49,17.20
2019,07,31,05,50,17.20
2019,07,31,05,51,17.20
2019,07,31,05,52,17.20
2019,07,31,05,53,17.20
2019,07,31,05,54,17.20
2019,07,31,05,55,17.20
2019,07,31,05,56,17.20
2019,07,31,05,57,17.20
2019,07,31,05,58,17.20
2019,07,31,05,59,17.20
2019,07,31,06,00,17.20
2019,07,31,06,01,17.20
2019,07,31,06,02,17.20
2019,07,31,06,03,17.20
2019,07,31,06,04,17.20
2019,07,31,06,05,17.20
2019,07,31,06,06,17.20
2019,07,31,06,07,17.20
2019,07,31,06,08,17.20
2019,07,31,06,09,17.20
2019,07,31,06,10,17.20
2019,07,31,06,11,17.20
2019,07,31,06,12,17.20
2019,07,31,06,13,17.20
2019,07,31,06,14,17.10
2019,07,31,06,15,17.10
2019,07,31,06,16,17.10
2019,07,31,06,17,17.10
2019,07,31,06,18,17.10
2019,07,31,06,19,17.10
2019,07,31,06,20,17.10
2019,07,31,06,21,17.10
2019,07,31,06,22,17.10
2019,07,31,06,23,17.20
2019,07,31,06,24,17.20
2019,07,31,06,25,17.20
2019,07,31,06,26,17.20
2019,07,31,06,27,17.20
2019,07,31,06,28,17.20
2019,07,31,06,29,17.20
2019,07,31,06,30,17.20
2019,07,31,06,31,17.20
2019,07,31,06,32,17.20
2019,07,31,06,33,17.20
2019,07,31,06,34,17.20
2019,07,31,06,35,17.20
2019,07,31,06,36,17.20
2019,07,31,06,37,17.20
2019,07,31,06,38,17.20
2019,07,31,06,39,17.30
2019,07,31,06,40,17.30
2019,07,31,06,41,17.30
2019,07,31,06,42,17.30
2019,07,31,06,43,17.30
2019,07,31,06,44,17.30
2019,07,31,06,45,17.30
2019,07,31,06,46,17.30
2019,07,31,06,47,17.30
2019,07,31,06,48,17.30
2019,07,31,06,49,17.30
2019,07,31,06,50,17.30
2019,07,31,06,51,17.40
2019,07,31,06,52,17.40
2019,07,31,06,53,17.40
2019,07,31,06,54,17.50
2019,07,31,06,55,17.50
2019,07,31,06,56,17.50
2019,07,31,06,57,17.50
2019,07,31,06,58,17.60
2019,07,31,06,59,17.60
2019,07,31,07,00,17.60
2019,07,31,07,01,17.60
2019,07,31,07,02,17.60
2019,07,31,07,03,17.60
2019,07,31,07,04,17.60
2019,07,31,07,05,17.60
2019,07,31,07,06,17.60
2019,07,31,07,07,17.60
2019,07,31,07,08,17.60
2019,07,31,07,09,17.60
2019,07,31,07,10,17.60
2019,07,31,07,11,17.60
2019,07,31,07,12,17.60
2019,07,31,07,13,17.60
2019,07,31,07,14,17.60
2019,07,31,07,15,17.70
2019,07,31,07,16,17.70
2019,07,31,07,17,17.70
2019,07,31,07,18,17.70
2019,07,31,07,19,17.70
2019,07,31,07,20,17.70
2019,07,31,07,21,17.70
2019,07,31,07,22,17.80
2019,07,31,07,23,17.80
2019,07,31,07,24,17.80
2019,07,31,07,25,17.90
2019,07,31,07,26,17.90
2019,07,31,07,27,17.90
2019,07,31,07,28,17.90
2019,07,31,07,29,17.90
2019,07,31,07,30,17.90
2019,07,31,07,31,18.00
2019,07,31,07,32,18.10
2019,07,31,07,33,18.10
2019,07,31,07,34,18.10
2019,07,31,07,35,18.10
2019,07,31,07,36,18.20
2019,07,31,07,37,18.20
2019,07,31,07,38,18.20
2019,07,31,07,39,18.20
2019,07,31,07,40,18.20
2019,07,31,07,41,18.20
2019,07,31,07,42,18.30
2019,07,31,07,43,18.30
2019,07,31,07,44,18.30
2019,07,31,07,45,18.30
2019,07,31,07,46,18.30
2019,07,31,07,47,18.30
2019,07,31,07,48,18.30
2019,07,31,07,49,18.40
2019,07,31,07,50,18.40
2019,07,31,07,51,18.40
2019,07,31,07,52,18.40
2019,07,31,07,53,18.40
2019,07,31,07,54,18.40
2019,07,31,07,55,18.40
2019,07,31,07,56,18.40
2019,07,31,07,57,18.40
2019,07,31,07,58,18.40
2019,07,31,07,59,18.40
2019,07,31,08,00,18.50
2019,07,31,08,01,18.50
2019,07,31,08,02,18.50
2019,07,31,08,03,18.50
2019,07,31,08,04,18.50
2019,07,31,08,05,18.50
2019,07,31,08,06,18.50
2019,07,31,08,07,18.50
2019,07,31,08,08,18.50
2019,07,31,08,09,18.50
2019,07,31,08,10,18.50
2019,07,31,08,11,18.50
2019,07,31,08,12,18.50
2019,07,31,08,13,18.50
2019,07,31,08,14,18.60
2019,07,31,08,15,18.60
2019,07,31,08,16,18.60
2019,07,31,08,17,18.60
2019,07,31,08,18,18.60
2019,07,31,08,19,18.60
2019,07,31,08,20,18.60
2019,07,31,08,21,18.60
2019,07,31,08,22,18.60
2019,07,31,08,23,18.60
2019,07,31,08,24,18.60
2019,07,31,08,25,18.60
2019,07,31,08,26,18.60
2019,07,31,08,27,18.60
2019,07,31,08,28,18.60
2019,07,31,08,29,18.60
2019,07,31,08,30,18.70
2019,07,31,08,31,18.70
2019,07,31,08,32,18.70
2019,07,31,08,33,18.80
2019,07,31,08,34,18.80
2019,07,31,08,35,18.80
2019,07,31,08,36,18.90
2019,07,31,08,37,18.90
2019,07,31,08,38,18.90
2019,07,31,08,39,18.90
2019,07,31,08,40,19.00
2019,07,31,08,41,19.10
2019,07,31,08,42,19.10
2019,07,31,08,43,19.10
2019,07,31,08,44,19.20
2019,07,31,08,45,19.30
2019,07,31,08,46,19.30
2019,07,31,08,47,19.40
2019,07,31,08,48,19.40
2019,07,31,08,49,19.40
2019,07,31,08,50,19.50
2019,07,31,08,51,19.50
2019,07,31,08,52,19.50
2019,07,31,08,53,19.50
2019,07,31,08,54,19.60
2019,07,31,08,55,19.60
2019,07,31,08,56,19.60
2019,07,31,08,57,19.60
2019,07,31,08,58,19.60
2019,07,31,08,59,19.70
2019,07,31,09,00,19.70
2019,07,31,09,01,19.70
2019,07,31,09,02,19.70
2019,07,31,09,03,19.70
2019,07,31,09,04,19.60
2019,07,31,09,05,19.60
2019,07,31,09,06,19.60
2019,07,31,09,07,19.60
2019,07,31,09,08,19.60
2019,07,31,09,09,19.60
2019,07,31,09,10,19.60
2019,07,31,09,11,19.60
2019,07,31,09,12,19.60
2019,07,31,09,13,19.60
2019,07,31,09,14,19.60
2019,07,31,09,15,19.60
2019,07,31,09,16,19.60
2019,07,31,09,17,19.70
2019,07,31,09,18,19.70
2019,07,31,09,19,19.70
2019,07,31,09,20,19.70
2019,07,31,09,21,19.70
2019,07,31,09,22,19.70
2019,07,31,09,23,19.70
2019,07,31,09,24,19.70
2019,07,31,09,25,19.70
2019,07,31,09,26,19.80
2019,07,31,09,27,19.80
2019,07,31,09,28,19.90
2019,07,31,09,29,19.90
2019,07,31,09,30,19.90
2019,07,31,09,31,19.90
2019,07,31,09,32,19.90
2019,07,31,09,33,20.00
2019,07,31,09,34,20.10
2019,07,31,09,35,20.10
2019,07,31,09,36,20.20
2019,07,31,09,37,20.20
2019,07,31,09,38,20.20
2019,07,31,09,39,20.20
2019,07,31,09,40,20.20
2019,07,31,09,41,20.20
2019,07,31,09,42,20.20
2019,07,31,09,43,20.20
2019,07,31,09,44,20.20
2019,07,31,09,45,20.20
2019,07,31,09,46,20.20
2019,07,31,09,47,20.20
2019,07,31,09,48,20.20
2019,07,31,09,49,20.20
2019,07,31,09,50,20.20
2019,07,31,09,51,20.30
2019,07,31,09,52,20.30
2019,07,31,09,53,20.30
2019,07,31,09,54,20.30
2019,07,31,09,55,20.30
2019,07,31,09,56,20.40
2019,07,31,09,57,20.40
2019,07,31,09,58,20.40
2019,07,31,09,59,20.40
2019,07,31,10,00,20.40
2019,07,31,10,01,20.40
2019,07,31,10,02,20.40
2019,07,31,10,03,20.40
2019,07,31,10,04,20.40
2019,07,31,10,05,20.40
2019,07,31,10,06,20.40
2019,07,31,10,07,20.40
2019,07,31,10,08,20.30
2019,07,31,10,09,20.30
2019,07,31,10,10,20.40
2019,07,31,10,11,20.40
2019,07,31,10,12,20.50
2019,07,31,10,13,20.50
2019,07,31,10,14,20.50
2019,07,31,10,15,20.50
2019,07,31,10,16,20.60
2019,07,31,10,17,20.70
2019,07,31,10,18,20.70
2019,07,31,10,19,20.80
2019,07,31,10,20,20.80
2019,07,31,10,21,20.70
2019,07,31,10,22,20.70
2019,07,31,10,23,20.70
2019,07,31,10,24,20.80
2019,07,31,10,25,20.80
2019,07,31,10,26,20.80
2019,07,31,10,27,20.80
2019,07,31,10,28,20.80
2019,07,31,10,29,20.80
2019,07,31,10,30,20.80
2019,07,31,10,31,20.80
2019,07,31,10,32,20.80
2019,07,31,10,33,20.80
2019,07,31,10,34,20.80
2019,07,31,10,35,20.80
2019,07,31,10,36,20.80
2019,07,31,10,37,20.80
2019,07,31,10,38,20.80
2019,07,31,10,39,20.80
2019,07,31,10,40,20.80
2019,07,31,10,41,20.80
2019,07,31,10,42,20.70
2019,07,31,10,43,20.70
2019,07,31,10,44,20.70
2019,07,31,10,45,20.70
2019,07,31,10,46,20.70
2019,07,31,10,47,20.60
2019,07,31,10,48,20.60
2019,07,31,10,49,20.60
2019,07,31,10,50,20.50
2019,07,31,10,51,20.50
2019,07,31,10,52,20.50
2019,07,31,10,53,20.50
2019,07,31,10,54,20.50
2019,07,31,10,55,20.50
2019,07,31,10,56,20.50
2019,07,31,10,57,20.60
2019,07,31,10,58,20.70
2019,07,31,10,59,20.80
2019,07,31,11,00,21.00
2019,07,31,11,01,21.00
2019,07,31,11,02,21.10
2019,07,31,11,03,21.10
2019,07,31,11,04,21.20
2019,07,31,11,05,21.30
2019,07,31,11,06,21.30
2019,07,31,11,07,21.30
2019,07,31,11,08,21.30
2019,07,31,11,09,21.30
2019,07,31,11,10,21.30
2019,07,31,11,11,21.30
2019,07,31,11,12,21.30
2019,07,31,11,13,21.30
2019,07,31,11,14,21.30
2019,07,31,11,15,21.40
2019,07,31,11,16,21.40
2019,07,31,11,17,21.50
2019,07,31,11,18,21.60
2019,07,31,11,19,21.60
2019,07,31,11,20,21.60
2019,07,31,11,21,21.60
2019,07,31,11,22,21.80
2019,07,31,11,23,21.90
2019,07,31,11,24,21.90
2019,07,31,11,25,21.90
2019,07,31,11,26,22.00
2019,07,31,11,27,22.00
2019,07,31,11,28,21.90
2019,07,31,11,29,21.70
2019,07,31,11,30,21.50
2019,07,31,11,31,21.30
2019,07,31,11,32,21.10
2019,07,31,11,33,21.00
2019,07,31,11,34,21.00
2019,07,31,11,35,20.90
2019,07,31,11,36,20.80
2019,07,31,11,37,20.70
2019,07,31,11,38,20.70
2019,07,31,11,39,20.70
2019,07,31,11,40,20.60
2019,07,31,11,41,20.60
2019,07,31,11,42,20.60
2019,07,31,11,43,20.50
2019,07,31,11,44,20.50
2019,07,31,11,45,20.50
2019,07,31,11,46,20.50
2019,07,31,11,47,20.60
2019,07,31,11,48,20.70
2019,07,31,11,49,20.80
2019,07,31,11,50,20.90
2019,07,31,11,51,20.90
2019,07,31,11,52,20.90
2019,07,31,11,53,20.80
2019,07,31,11,54,20.80
2019,07,31,11,55,20.70
2019,07,31,11,56,20.70
2019,07,31,11,57,20.70
2019,07,31,11,58,20.60
2019,07,31,11,59,20.50
2019,07,31,12,00,20.50
2019,07,31,12,01,20.50
2019,07,31,12,02,20.50
2019,07,31,12,03,20.50
2019,07,31,12,04,20.50
2019,07,31,12,05,20.50
2019,07,31,12,06,20.50
2019,07,31,12,07,20.60
2019,07,31,12,08,20.70
2019,07,31,12,09,20.80
2019,07,31,12,10,20.80
2019,07,31,12,11,20.80
2019,07,31,12,12,20.90
2019,07,31,12,13,21.00
2019,07,31,12,14,21.10
2019,07,31,12,15,21.10
2019,07,31,12,16,21.10
2019,07,31,12,17,21.10
2019,07,31,12,18,21.00
2019,07,31,12,19,21.00
2019,07,31,12,20,20.90
2019,07,31,12,21,20.80
2019,07,31,12,22,20.80
2019,07,31,12,23,20.80
2019,07,31,12,24,20.90
2019,07,31,12,25,20.90
2019,07,31,12,26,21.00
2019,07,31,12,27,21.00
2019,07,31,12,28,21.20
2019,07,31,12,29,21.30
2019,07,31,12,30,21.30
2019,07,31,12,31,21.40
2019,07,31,12,32,21.40
2019,07,31,12,33,21.40
2019,07,31,12,34,21.30
2019,07,31,12,35,21.30
2019,07,31,12,36,21.30
2019,07,31,12,37,21.20
2019,07,31,12,38,21.10
2019,07,31,12,39,21.10
2019,07,31,12,40,21.00
2019,07,31,12,41,21.00
2019,07,31,12,42,21.00
2019,07,31,12,43,21.00
2019,07,31,12,44,21.00
2019,07,31,12,45,21.00
2019,07,31,12,46,21.10
2019,07,31,12,47,21.10
2019,07,31,12,48,21.20
2019,07,31,12,49,21.40
2019,07,31,12,50,21.40
2019,07,31,12,51,21.40
2019,07,31,12,52,21.60
2019,07,31,12,53,21.60
2019,07,31,12,54,21.60
2019,07,31,12,55,21.70
2019,07,31,12,56,21.90
2019,07,31,12,57,21.90
2019,07,31,12,58,21.80
2019,07,31,12,59,21.60
2019,07,31,13,00,21.60
2019,07,31,13,01,21.70
2019,07,31,13,02,21.80
2019,07,31,13,03,21.90
2019,07,31,13,04,22.00
2019,07,31,13,05,22.10
2019,07,31,13,06,22.10
2019,07,31,13,07,22.10
2019,07,31,13,08,22.00
2019,07,31,13,09,21.90
2019,07,31,13,10,21.80
2019,07,31,13,11,21.80
2019,07,31,13,12,21.90
2019,07,31,13,13,22.00
2019,07,31,13,14,22.00
2019,07,31,13,15,22.00
2019,07,31,13,16,22.00
2019,07,31,13,17,22.00
2019,07,31,13,18,21.90
2019,07,31,13,19,21.80
2019,07,31,13,20,21.60
2019,07,31,13,21,21.60
2019,07,31,13,22,21.60
2019,07,31,13,23,21.60
2019,07,31,13,24,21.50
2019,07,31,13,25,21.40
2019,07,31,13,26,21.50
2019,07,31,13,27,21.60
2019,07,31,13,28,21.60
2019,07,31,13,29,21.70
2019,07,31,13,30,21.80
2019,07,31,13,31,22.00
2019,07,31,13,32,22.00
2019,07,31,13,33,22.10
2019,07,31,13,34,22.10
2019,07,31,13,35,22.10
2019,07,31,13,36,22.00
2019,07,31,13,37,21.80
2019,07,31,13,38,21.70
2019,07,31,13,39,21.60
2019,07,31,13,40,21.60
2019,07,31,13,41,21.60
2019,07,31,13,42,21.60
2019,07,31,13,43,21.70
2019,07,31,13,44,21.70
2019,07,31,13,45,21.80
2019,07,31,13,46,21.70
2019,07,31,13,47,21.60
2019,07,31,13,48,21.50
2019,07,31,13,49,21.30
2019,07,31,13,50,21.30
2019,07,31,13,51,21.20
2019,07,31,13,52,21.20
2019,07,31,13,53,21.20
2019,07,31,13,54,21.20
2019,07,31,13,55,21.20
2019,07,31,13,56,21.20
2019,07,31,13,57,21.30
2019,07,31,13,58,21.30
2019,07,31,13,59,21.20
2019,07,31,14,00,21.20
2019,07,31,14,01,21.20
2019,07,31,14,02,21.20
2019,07,31,14,03,21.10
2019,07,31,14,04,21.10
2019,07,31,14,05,21.10
2019,07,31,14,06,21.10
2019,07,31,14,07,21.10
2019,07,31,14,08,21.10
2019,07,31,14,09,21.10
2019,07,31,14,10,21.20
2019,07,31,14,11,21.30
2019,07,31,14,12,21.30
2019,07,31,14,13,21.30
2019,07,31,14,14,21.30
2019,07,31,14,15,21.40
2019,07,31,14,16,21.40
2019,07,31,14,17,21.40
2019,07,31,14,18,21.40
2019,07,31,14,19,21.40
2019,07,31,14,20,21.30
2019,07,31,14,21,21.30
2019,07,31,14,22,21.30
2019,07,31,14,23,21.30
2019,07,31,14,24,21.30
2019,07,31,14,25,21.30
2019,07,31,14,26,21.40
2019,07,31,14,27,21.40
2019,07,31,14,28,21.60
2019,07,31,14,29,21.60
2019,07,31,14,30,21.50
2019,07,31,14,31,21.40
2019,07,31,14,32,21.40
2019,07,31,14,33,21.40
2019,07,31,14,34,21.40
2019,07,31,14,35,21.40
2019,07,31,14,36,21.40
2019,07,31,14,37,21.30
2019,07,31,14,38,21.30
2019,07,31,14,39,21.20
2019,07,31,14,40,21.20
2019,07,31,14,41,21.20
2019,07,31,14,42,21.20
2019,07,31,14,43,21.20
2019,07,31,14,44,21.30
2019,07,31,14,45,21.30
2019,07,31,14,46,21.30
2019,07,31,14,47,21.30
2019,07,31,14,48,21.30
2019,07,31,14,49,21.30
2019,07,31,14,50,21.30
2019,07,31,14,51,21.30
2019,07,31,14,52,21.30
2019,07,31,14,53,21.40
2019,07,31,14,54,21.40
2019,07,31,14,55,21.40
2019,07,31,14,56,21.50
2019,07,31,14,57,21.60
2019,07,31,14,58,21.60
2019,07,31,14,59,21.60
2019,07,31,15,00,21.60
2019,07,31,15,01,21.60
2019,07,31,15,02,21.70
2019,07,31,15,03,21.80
2019,07,31,15,04,21.90
2019,07,31,15,05,21.90
2019,07,31,15,06,22.00
2019,07,31,15,07,22.10
2019,07,31,15,08,22.20
2019,07,31,15,09,22.30
2019,07,31,15,10,22.30
2019,07,31,15,11,22.40
2019,07,31,15,12,22.40
2019,07,31,15,13,22.50
2019,07,31,15,14,22.50
2019,07,31,15,15,22.50
2019,07,31,15,16,22.50
2019,07,31,15,17,22.50
2019,07,31,15,18,22.60
2019,07,31,15,19,22.70
2019,07,31,15,20,22.70
2019,07,31,15,21,22.80
2019,07,31,15,22,22.80
2019,07,31,15,23,22.80
2019,07,31,15,24,22.80
2019,07,31,15,25,22.80
2019,07,31,15,26,22.80
2019,07,31,15,27,22.70
2019,07,31,15,28,22.70
2019,07,31,15,29,22.70
2019,07,31,15,30,22.70
2019,07,31,15,31,22.60
2019,07,31,15,32,22.60
2019,07,31,15,33,22.50
2019,07,31,15,34,22.40
2019,07,31,15,35,22.30
2019,07,31,15,36,22.20
2019,07,31,15,37,22.20
2019,07,31,15,38,22.10
2019,07,31,15,39,22.20
2019,07,31,15,40,22.20
2019,07,31,15,41,22.30
2019,07,31,15,42,22.30
2019,07,31,15,43,22.30
2019,07,31,15,44,22.40
2019,07,31,15,45,22.40
2019,07,31,15,46,22.40
2019,07,31,15,47,22.30
2019,07,31,15,48,22.30
2019,07,31,15,49,22.40
2019,07,31,15,50,22.50
2019,07,31,15,51,22.60
2019,07,31,15,52,22.60
2019,07,31,15,53,22.60
2019,07,31,15,54,22.70
2019,07,31,15,55,22.80
2019,07,31,15,56,22.80
2019,07,31,15,57,22.70
2019,07,31,15,58,22.70
2019,07,31,15,59,22.70
2019,07,31,16,00,22.70
2019,07,31,16,01,22.70
2019,07,31,16,02,22.70
2019,07,31,16,03,22.70
2019,07,31,16,04,22.70
2019,07,31,16,05,22.70
2019,07,31,16,06,22.70
2019,07,31,16,07,22.60
2019,07,31,16,08,22.60
2019,07,31,16,09,22.60
2019,07,31,16,10,22.70
2019,07,31,16,11,22.70
2019,07,31,16,12,22.90
2019,07,31,16,13,22.90
2019,07,31,16,14,22.90
2019,07,31,16,15,22.90
2019,07,31,16,16,22.90
2019,07,31,16,17,22.90
2019,07,31,16,18,22.90
2019,07,31,16,19,22.90
2019,07,31,16,20,23.00
2019,07,31,16,21,23.10
2019,07,31,16,22,23.20
2019,07,31,16,23,23.30
2019,07,31,16,24,23.30
2019,07,31,16,25,23.40
2019,07,31,16,26,23.50
2019,07,31,16,27,23.60
2019,07,31,16,28,23.60
2019,07,31,16,29,23.50
2019,07,31,16,30,23.40
2019,07,31,16,31,23.30
2019,07,31,16,32,23.30
2019,07,31,16,33,23.30
2019,07,31,16,34,23.30
2019,07,31,16,35,23.20
2019,07,31,16,36,23.20
2019,07,31,16,37,23.20
2019,07,31,16,38,23.20
2019,07,31,16,39,23.20
2019,07,31,16,40,23.10
2019,07,31,16,41,23.10
2019,07,31,16,42,23.10
2019,07,31,16,43,23.10
2019,07,31,16,44,23.10
2019,07,31,16,45,23.10
2019,07,31,16,46,23.10
2019,07,31,16,47,23.10
2019,07,31,16,48,23.10
2019,07,31,16,49,23.20
2019,07,31,16,50,23.20
2019,07,31,16,51,23.20
2019,07,31,16,52,23.20
2019,07,31,16,53,23.20
2019,07,31,16,54,23.20
2019,07,31,16,55,23.30
2019,07,31,16,56,23.30
2019,07,31,16,57,23.30
2019,07,31,16,58,23.30
2019,07,31,16,59,23.40
2019,07,31,17,00,23.40
2019,07,31,17,01,23.40
2019,07,31,17,02,23.50
2019,07,31,17,03,23.60
2019,07,31,17,04,23.70
2019,07,31,17,05,23.70
2019,07,31,17,06,23.80
2019,07,31,17,07,23.90
2019,07,31,17,08,24.00
2019,07,31,17,09,24.10
2019,07,31,17,10,24.10
2019,07,31,17,11,24.20
2019,07,31,17,12,24.30
2019,07,31,17,13,24.30
2019,07,31,17,14,24.30
2019,07,31,17,15,24.30
2019,07,31,17,16,24.30
2019,07,31,17,17,24.20
2019,07,31,17,18,24.20
2019,07,31,17,19,24.10